Regional Weather Roundup
Issued by NWS Jackson, KY

Home | Current Version | Previous Version | Text Only | Print | Product List | Glossary Off
Versions: 1 2 3 4 5 6 7 8 9 10 11 12 13 14 15 16 17 18 19 20 21 22 23 24 25 26 27 28 29 30 31 32 33 34 35 36 37 38 39 40 41 42 43 44 45 46 47 48 49 50

000
ASUS43 KJKL 302310
RWRJKL

EAST KENTUCKY HOURLY WEATHER ROUNDUP
NATIONAL WEATHER SERVICE JACKSON KY
700 PM EDT THU OCT 30 2014

NOTE: "FAIR" INDICATES FEW OR NO CLOUDS BELOW 12,000 FEET WITH
NO SIGNIFICANT WEATHER AND/OR OBSTRUCTIONS TO VISIBILITY.

* THESE REPORTS ARE NOT UNDER NWS QUALITY CONTROL AND MAY NOT
  REPORT WEATHER SUCH AS PRECIPITATION AND FOG.

KYZ079-080-083-085-087-088-110-112-115-119-120-310000
...EASTERN KENTUCKY...

CITY           SKY/WX    TMP DP  RH WIND       PRES   REMARKS
JACKSON        CLEAR     48  34  58 CALM      30.05S
LONDON         CLEAR     54  37  52 CALM      30.03F
SOMERSET*      PTCLDY    52  36  54 CALM      30.06R
MONTICELLO*    CLEAR     48  39  71 CALM      30.06S
WILLIAMSBURG*  CLEAR     50  37  62 MISG      30.04
MIDDLESBORO*   CLEAR     51  40  67 CALM      30.03S
HARLAN APT*    CLEAR     52  34  50 CALM      30.02S
HAZARD APT*    CLEAR     50  36  57 CALM      30.04
BLACK MTN*       N/A     39  34  81 N1          N/A
PIKEVILLE APT* CLEAR     45  34  65 N5        30.06S
BIG SANDY*     CLEAR     44  35  70 NE3       30.07S
MOREHEAD APT*  CLEAR     46  34  61 NW3       30.09S
$$

KYZ035-036-041-042-044-050-067-078-099-310000
...CENTRAL KENTUCKY...

CITY           SKY/WX    TMP DP  RH WIND       PRES   REMARKS
MT STERLING*   CLEAR     46  36  66 NE3       30.08S
FLEMING/MASON* CLEAR     46  34  61 CALM      30.08S
DANVILLE*      CLEAR     45  37  76 CALM      30.07S
RICHMOND*      CLEAR     48  36  61 N3        30.07R
LEXINGTON      PTCLDY    48  36  63 NE6       30.07R
FRANKFORT      CLEAR     50  36  58 E3        30.06R
$$

KYZ091>093-OHZ055-061-077-WVZ005-015-034-035-042-310000
...SOUTHERN OHIO/WEST VIRGINIA...

CITY           SKY/WX    TMP DP  RH WIND       PRES   REMARKS
COVINGTON      MOCLDY    52  32  46 CALM      30.06S
COLUMBUS       CLOUDY    48  33  56 N3        30.08S
DAYTON         MOCLDY    46  35  65 NE5       30.08S
WILMINGTON     PTCLDY    46  32  58 CALM      30.07R
HUNTINGTON     CLOUDY    48  34  58 CALM      30.08R
CHARLESTON     CLOUDY    48  34  58 CALM      30.08S
PINEVILLE*     CLEAR     42  40  92 MISG      30.10R
BECKLEY        CLEAR     40  30  67 NE5       30.04F
BLUEFIELD      CLEAR     46  32  58 N3        30.04R
$$

VAZ002-007-008-TNZ017-027-036-066-071-310000
...SOUTHWEST VIRGINIA/EAST TENNESSEE...

CITY           SKY/WX    TMP DP  RH WIND       PRES   REMARKS
WISE*          CLEAR     45  34  65 N5        30.04R
JONESVILLE*    CLEAR     54  39  58 CALM      30.04R HAZE
ABINGDON*      CLEAR     51  38  60 CALM      30.02S
BRISTOL        PTCLDY    52  38  58 CALM      30.02R
KNOXVILLE      PTCLDY    57  40  52 CALM      30.00S
OAK RIDGE      CLEAR     56  44  64 CALM      30.02S
CROSSVILLE     CLEAR     54  34  46 NW5       30.03S
NASHVILLE      PTCLDY    57  38  48 NE5       30.05S
$$

...KEY TO REMARKS...
VSB - VISIBILITY IN MILES
WCI - WIND CHILL INDEX
HX  - HEAT INDEX

$$



USA.gov is the U.S. government's official web portal to all federal, state and local government web resources and services.